{"data":{"norad_id":60310,"intl_designator":"2024-133K","name":"STARLINK-11200 [DTC]","alt_names":[],"object_type":"PAYLOAD","status":"ACTIVE","operator":null,"country":"US","launch_date":"2024-07-28","launch_site_code":"AFWTR","launch_vehicle":null,"mission":null,"orbit_class":"UNKNOWN","rcs_meters":null,"size_class":null,"mass_kg":null,"dimensions":null,"purposes":["comms"],"wikipedia_slug":null,"has_3d_model":false,"image_url":null,"decayed_at":null,"tle_current":{"epoch":"2026-09-20T05:38:16.389888Z","epoch_age_seconds":208504,"freshness":"STALE","line1":"1 60310U 24133K   26263.23491192 -.00000619  00000+0 -25444-6 0  9995","line2":"2 60310  53.1591 266.8868 0000899  80.7177 279.3942 15.69699367124291","mean_motion":15.69699367,"eccentricity":8.99e-5,"inclination_deg":53.1591,"raan_deg":266.8868,"arg_perigee_deg":80.7177,"mean_anomaly_deg":279.3942,"bstar":-2.5444e-7,"rev_number":12429,"period_min":91.737311632617,"perigee_km":359.15144148083,"apogee_km":360.36291485406,"semimajor_km":6737.8941781674,"source":"CELESTRAK","updated_at":"2026-09-22T09:00:49.198322Z"}}}